TimePST,TemperatureF,Dew PointF,Humidity,Sea Level PressureIn,VisibilityMPH,Wind Direction,Wind SpeedMPH,Gust SpeedMPH,PrecipitationIn,Events,Conditions,WindDirDegrees,DateUTC
12:56 AM,48.9,23.0,36,30.15,10.0,South,5.8,-,N/A,,Clear,180,2012-11-24 08:56:00
1:56 AM,46.9,24.1,41,30.14,10.0,South,9.2,-,N/A,,Clear,180,2012-11-24 09:56:00
2:56 AM,45.9,23.0,41,30.14,10.0,South,6.9,-,N/A,,Clear,170,2012-11-24 10:56:00
3:56 AM,45.9,23.0,41,30.14,10.0,South,6.9,-,N/A,,Clear,180,2012-11-24 11:56:00
4:56 AM,45.0,23.0,42,30.15,10.0,South,11.5,-,N/A,,Clear,190,2012-11-24 12:56:00
5:56 AM,45.0,23.0,42,30.16,10.0,SSW,11.5,-,N/A,,Clear,200,2012-11-24 13:56:00
6:56 AM,45.0,23.0,42,30.17,10.0,SSW,8.1,-,N/A,,Clear,200,2012-11-24 14:56:00
7:56 AM,52.0,24.1,34,30.17,10.0,Calm,Calm,-,N/A,,Clear,0,2012-11-24 15:56:00
8:56 AM,57.9,25.2,28,30.17,10.0,Calm,Calm,-,N/A,,Clear,0,2012-11-24 16:56:00
9:56 AM,65.8,24.1,21,30.15,10.0,Calm,Calm,-,N/A,,Clear,0,2012-11-24 17:56:00
10:56 AM,68.0,23.0,18,30.12,10.0,Calm,Calm,-,N/A,,Clear,0,2012-11-24 18:56:00
11:56 AM,68.9,22.1,17,30.07,10.0,Calm,Calm,-,N/A,,Clear,0,2012-11-24 19:56:00
12:56 PM,70.0,22.1,16,30.04,10.0,NE,6.9,-,N/A,,Clear,40,2012-11-24 20:56:00
1:56 PM,70.9,22.1,16,30.02,10.0,Calm,Calm,-,N/A,,Clear,0,2012-11-24 21:56:00
2:56 PM,70.9,22.1,16,30.00,10.0,Calm,Calm,-,N/A,,Clear,0,2012-11-24 22:56:00
3:56 PM,70.0,23.0,17,29.99,10.0,Calm,Calm,-,N/A,,Clear,0,2012-11-24 23:56:00
4:56 PM,63.0,27.1,26,29.99,10.0,Calm,Calm,-,N/A,,Clear,0,2012-11-25 00:56:00
5:56 PM,55.9,26.1,32,29.99,10.0,South,6.9,-,N/A,,Clear,170,2012-11-25 01:56:00
6:56 PM,54.0,24.1,31,30.00,10.0,SSE,6.9,-,N/A,,Clear,160,2012-11-25 02:56:00
7:56 PM,52.0,23.0,32,29.99,10.0,SSE,8.1,-,N/A,,Clear,160,2012-11-25 03:56:00
8:56 PM,50.9,22.1,32,29.97,10.0,South,9.2,-,N/A,,Clear,190,2012-11-25 04:56:00
9:56 PM,50.0,23.0,35,29.96,10.0,South,6.9,-,N/A,,Clear,180,2012-11-25 05:56:00
10:56 PM,47.8,23.0,38,29.96,10.0,Calm,Calm,-,N/A,,Clear,0,2012-11-25 06:56:00
11:56 PM,46.9,22.1,38,29.94,10.0,SSE,10.4,-,N/A,,Clear,160,2012-11-25 07:56:00